Regional Weather Roundup
Issued by NWS Boston, MA

Current Version | Previous Version | Text Only | Print | Product List | Glossary Off
Versions: 1 2 3 4 5 6 7 8 9 10 11 12 13 14 15 16 17 18 19 20 21 22 23 24 25 26 27 28 29 30 31 32 33 34 35 36 37 38 39 40 41 42 43 44 45 46 47 48 49 50
000 ASUS41 KBOX 221410 RWRBOX REGIONAL WEATHER ROUNDUP NATIONAL WEATHER SERVICE BOSTON/NORTON MA 1000 AM EDT MON OCT 22 2018 NOTE: "FAIR" INDICATES FEW OR NO CLOUDS BELOW 12,000 FEET WITH NO SIGNIFICANT WEATHER AND/OR OBSTRUCTIONS TO VISIBILITY. MAZALL-221500- EASTERN MASSACHUSETTS CITY SKY/WX TMP DP RH WIND PRES REMARKS BOSTON FAIR 44 25 47 W9G17 30.19F BEVERLY FAIR 41 23 48 VRB6 30.17F LAWRENCE FAIR 43 24 47 W10 30.19F BEDFORD FAIR 41 27 57 W9 30.18S BLUE HILL N/A 39 27 62 W9 30.16S NORWOOD FAIR 44 30 57 W8 30.20S MARSHFIELD FAIR 41 28 60 SW6 30.20S PLYMOUTH FAIR 45 30 55 W10 30.21S TAUNTON FAIR 43 30 60 VRB6 30.21S NEW BEDFORD FAIR 44 33 65 W9 30.21S $$ MAZALL-221500- CAPE COD AND THE ISLANDS CITY SKY/WX TMP DP RH WIND PRES REMARKS FALMOUTH FAIR 43 27 52 W15 30.22S HYANNIS FAIR 43 26 51 NW9 30.20S CHATHAM FAIR 44 24 45 VRB6 30.22R PROVINCETOWN FAIR 43 25 49 W14 30.20R NANTUCKET FAIR 44 24 45 W12 30.23R MARTHAS VNYRD FAIR 45 28 51 NW10 30.22S $$ MAZALL-221500- CENTRAL AND WESTERN MASSACHUSETTS CITY SKY/WX TMP DP RH WIND PRES REMARKS WORCESTER FAIR 37 27 67 W13 30.15S WCI 29 FITCHBURG FAIR 39 27 62 W7 30.18F ORANGE FAIR 39 28 64 CALM 30.18F SPRINGFIELD MOSUNNY 40 30 67 CALM 30.19S WESTFIELD FAIR 43 31 62 SW10 30.20S NORTH ADAMS CLOUDY 40 31 70 W9 30.17R PITTSFIELD CLOUDY 38 29 70 W7 30.15R $$ RIZALL-221500- RHODE ISLAND CITY SKY/WX TMP DP RH WIND PRES REMARKS PROVIDENCE FAIR 42 29 59 W9 30.23R NEWPORT FAIR 44 29 55 VRB5 30.22S BLOCK ISLAND FAIR 47 28 47 W12G20 30.23S SMITHFIELD FAIR 41 29 62 W5 30.20S WESTERLY FAIR 46 31 55 VRB3 30.24R $$ CTZALL-221500- CONNECTICUT CITY SKY/WX TMP DP RH WIND PRES REMARKS BRADLEY INTL PTSUNNY 41 31 67 SW7 30.21R HARTFORD CLOUDY 41 30 65 SW6 30.23R BRIDGEPORT CLOUDY 44 32 62 W9 30.24S DANBURY CLOUDY 40 33 76 W6 30.23S GROTON CLOUDY 46 30 53 W7 30.23S NEW HAVEN CLOUDY 44 33 65 NW7 30.24S CHESTER FAIR 46 28 49 NW10 30.22S MERIDEN CLOUDY 38 32 79 CALM 30.23S WILLIMANTIC CLOUDY 40 32 73 S3 30.22F OXFORD PTSUNNY 37 32 82 CALM 30.22R $$ MEZ002-015-021-024-NHZ003-005-008-011-012-014-VTZ005-008-221500- NORTHERN NEW ENGLAND CITY SKY/WX TMP DP RH WIND PRES REMARKS PORTLAND ME FAIR 40 22 48 W8 30.14S BANGOR ME FAIR 38 19 46 NW13 30.08R WCI 30 CONCORD NH FAIR 40 21 46 W7 30.16S MANCHESTER NH FAIR 40 22 48 CALM 30.15F NASHUA NH FAIR 40 22 48 W7 30.18S PORTSMOUTH NH MOSUNNY 40 21 45 W12 30.15S JAFFREY NH FAIR 38 25 59 W7 30.14S KEENE NH FAIR 35 27 72 CALM 30.16F BURLINGTON VT PTSUNNY 39 20 46 NW10 30.14R MT. WASHINGTON SNOWSHWR 9 9 100 NW48G58 N/A VSB 1/16WCI -19 $$ NYZ052-076-221500- EASTERN NEW YORK CITY SKY/WX TMP DP RH WIND PRES REMARKS ALBANY PTSUNNY 41 32 70 SW5 30.20R NEW YORK CITY PTSUNNY 48 31 51 SW13 30.26R $$ ANZALL-221500- MARINE OBSERVATIONS STATION/POSITION TIME TEMP WIND PRES VSBY WAVE AIR SEA DIR/SP/G HT/PER (UTC) (F) (DEG/KT/KT) (MB) (MI) (FT/S) BOSTON BUOY 1350 42 56 290/ 14/ 19 1021.4F 2/ 3 BUZZARDS BAY 1300 42 290/ 16/ 17 1023.9R NANTUCKET SOUND 1350 43 58 270/ 14/ 17 1023.3R 1/ 2 MASS BAY-STELLWA 1304 40 55 300/ 16/ 19 1020.8R 1 7/8 2/ 3 ISLE OF SHOALS 1300 37 280/ 14/ 18 1020.7S S OF BLOCK IS 1343 62 N/A 3/ 4 $$ ......................KEY......................... SKY/WX - SKY CONDITION/PRESENT WEATHER TMP - TEMPERATURE IN FAHRENHEIT DWPT - DEWPOINT IN FAHRENHEIT RH - RELATIVE HUMIDITY IN PERCENT WIND - DIRECTION AND SPEED IN MPH PRES - MEAN SEA LEVEL PRESSURE IN INCHES OF HG WCI - WIND CHILL INDEX VSB - VISIBILITY IN MILES HX - HEAT INDEX TC - TEMPERATURE IN CELSIUS VRB - VARIABLE WIND DIRECTION N/A - NOT AVAILABLE

USA.gov is the U.S. government's official web portal to all federal, state and local government web resources and services.